GW3985 Weather Reports


time (UTC)temp
C
wind
direction
speed
KPH
gust
KPH
rain 1hr
cm
rain 24hr
cm
rain mn
cm
humidity
%
barometer
mb
20260904063016 21 139 0.0 1.6 0.00 0.00 0.00 47 1020.9
20260904062017 21 0.0 0.0 0.00 0.00 0.00 46 1020.9
20260904061017 21 139 0.0 1.6 0.00 0.00 0.00 45 1020.9
20260904060015 22 144 0.0 3.2 0.00 0.00 0.00 44 1020.9
20260904055015 22 143 0.0 3.2 0.00 0.00 0.00 43 1020.9
20260904054016 22 275 0.0 1.6 0.00 0.00 0.00 43 1021.0
20260904053016 22 249 0.0 1.6 0.00 0.00 0.00 41 1021.0
20260904052016 22 0.0 0.0 0.00 0.00 0.00 40 1021.0
20260904051017 23 0.0 0.0 0.00 0.00 0.00 39 1021.1
20260904050015 23 258 0.0 1.6 0.00 0.00 0.00 38 1021.2
20260904045015 23 240 0.0 1.6 0.00 0.00 0.00 37 1021.3
20260904044015 23 146 0.0 4.8 0.00 0.00 0.00 35 1021.3
20260904043016 23 263 1.6 11.3 0.00 0.00 0.00 34 1021.4
20260904042016 23 170 0.0 3.2 0.00 0.00 0.00 34 1021.4
20260904041017 23 129 0.0 1.6 0.00 0.00 0.00 33 1021.4
20260904040017 23 273 0.0 3.2 0.00 0.00 0.00 32 1021.2
20260904035015 23 0.0 0.0 0.00 0.00 0.00 32 1021.2
20260904034015 24 129 0.0 1.6 0.00 0.00 0.00 31 1021.0
20260904033015 24 141 1.6 9.7 0.00 0.00 0.00 31 1020.7
20260904032016 24 142 1.6 3.2 0.00 0.00 0.00 31 1020.5
20260904031019 24 146 0.0 1.6 0.00 0.00 0.00 30 1020.5
20260904030017 24 162 1.6 8.0 0.00 0.00 0.00 31 1020.4
20260904025017 24 272 0.0 1.6 0.00 0.00 0.00 32 1020.4
20260904024035 25 0.0 0.0 0.00 0.00 0.00 31 1020.2
20260904023015 25 144 0.0 3.2 0.00 0.00 0.00 29 1019.8
20260904022016 26 139 1.6 6.4 0.00 0.00 0.00 28 1019.6
20260904021036 26 136 1.6 6.4 0.00 0.00 0.00 28 1019.5
20260904020016 26 130 1.6 4.8 0.00 0.00 0.00 27 1019.4
20260904015017 27 134 1.6 4.8 0.00 0.00 0.00 26 1019.3
20260904014017 27 136 3.2 8.0 0.00 0.00 0.00 26 1019.1
20260904013015 27 140 3.2 11.3 0.00 0.00 0.00 25 1019.0
20260904012015 28 138 3.2 11.3 0.00 0.00 0.00 25 1018.9
20260904011016 28 139 3.2 19.3 0.00 0.00 0.00 25 1018.9
20260904010016 29 143 3.2 6.4 0.00 0.00 0.00 25 1018.9
20260904005017 29 141 1.6 6.4 0.00 0.00 0.00 24 1018.9
20260904004017 30 142 1.6 11.3 0.00 0.00 0.00 23 1018.9
20260904003015 30 145 3.2 9.7 0.00 0.00 0.00 22 1018.9
20260904002015 31 138 3.2 11.3 0.00 0.00 0.00 21 1019.0
20260904001015 31 163 3.2 12.9 0.00 0.00 0.00 19 1018.8
20260904000016 32 130 3.2 9.7 0.00 0.00 0.00 17 1018.9
20260903235016 33 155 1.6 8.0 0.00 0.00 0.00 16 1018.9
20260903234016 32 246 0.0 3.2 0.00 0.00 0.00 17 1019.0
20260903233017 33 152 1.6 4.8 0.00 0.00 0.00 16 1019.1
20260903232035 33 139 1.6 6.4 0.00 0.00 0.00 17 1019.2
20260903231015 33 241 0.0 3.2 0.00 0.00 0.00 18 1019.2
20260903230016 33 139 1.6 8.0 0.00 0.00 0.00 18 1019.4
20260903225019 32 136 3.2 9.7 0.00 0.00 0.00 19 1019.5
20260903224016 33 143 1.6 4.8 0.00 0.00 0.00 19 1019.6
20260903223016 33 243 0.0 6.4 0.00 0.00 0.00 21 1019.6
20260903222037 32 126 1.6 4.8 0.00 0.00 0.00 22 1019.7
20260903221015 32 106 1.6 4.8 0.00 0.00 0.00 22 1019.8
20260903220015 32 141 4.8 9.7 0.00 0.00 0.00 21 1019.9
20260903215016 32 144 1.6 9.7 0.00 0.00 0.00 20 1019.9
20260903214016 32 143 1.6 8.0 0.00 0.00 0.00 19 1020.1
20260903213016 33 144 4.8 11.3 0.00 0.00 0.00 20 1020.2
20260903212017 32 154 0.0 1.6 0.00 0.00 0.00 22 1020.2
20260903211017 32 137 3.2 14.5 0.00 0.00 0.00 22 1020.4
20260903210015 33 127 1.6 3.2 0.00 0.00 0.00 20 1020.4
20260903205015 32 267 3.2 9.7 0.00 0.00 0.00 20 1020.5
20260903204015 32 238 1.6 6.4 0.00 0.00 0.00 20 1020.7
20260903203016 32 252 3.2 11.3 0.00 0.00 0.00 20 1020.9
20260903202019 32 222 3.2 9.7 0.00 0.00 0.00 21 1020.9
20260903201037 32 131 1.6 3.2 0.00 0.00 0.00 21 1021.0
20260903200017 31 130 1.6 9.7 0.00 0.00 0.00 22 1021.2
20260903195015 31 231 0.0 3.2 0.00 0.00 0.00 23 1021.2
20260903194015 31 257 1.6 6.4 0.00 0.00 0.00 23 1021.4
20260903193015 31 134 3.2 6.4 0.00 0.00 0.00 24 1021.5
20260903192016 31 136 3.2 8.0 0.00 0.00 0.00 25 1021.6
20260903191016 30 84 1.6 3.2 0.00 0.00 0.00 26 1021.8
20260903190037 30 163 0.0 1.6 0.00 0.00 0.00 26 1022.0
20260903185017 30 138 1.6 9.7 0.00 0.00 0.00 25 1022.3
20260903184015 29 93 0.0 1.6 0.00 0.00 0.00 27 1022.4
20260903183015 28 304 0.0 1.6 0.00 0.00 0.00 27 1022.6
20260903182016 28 127 0.0 1.6 0.00 0.00 0.00 27 1022.8
20260903181016 28 144 1.6 4.8 0.00 0.00 0.00 27 1022.9
20260903180036 27 145 0.0 1.6 0.00 0.00 0.00 29 1023.0
20260903175037 27 135 0.0 1.6 0.00 0.00 0.00 27 1023.1
20260903174017 27 153 1.6 6.4 0.00 0.00 0.00 28 1023.2
20260903173015 27 271 1.6 8.0 0.00 0.00 0.00 30 1023.1
20260903172015 26 141 1.6 4.8 0.00 0.00 0.00 30 1023.2
20260903171016 26 141 1.6 6.4 0.00 0.00 0.00 31 1023.2
20260903170016 26 237 1.6 6.4 0.00 0.00 0.00 31 1023.2
20260903165016 26 245 1.6 4.8 0.00 0.00 0.00 31 1023.2
20260903164017 26 264 0.0 4.8 0.00 0.00 0.00 32 1023.2
20260903163036 25 223 1.6 6.4 0.00 0.00 0.00 33 1023.1
20260903162015 25 265 1.6 6.4 0.00 0.00 0.00 35 1023.1
20260903161015 25 288 1.6 6.4 0.00 0.00 0.00 35 1023.1
20260903160016 25 276 1.6 4.8 0.00 0.00 0.00 36 1023.0
20260903155016 24 179 1.6 8.0 0.00 0.00 0.00 37 1023.0
20260903154016 23 264 1.6 3.2 0.00 0.00 0.00 39 1023.1
20260903153017 23 274 1.6 9.7 0.00 0.00 0.00 40 1023.2
20260903152015 23 146 0.0 4.8 0.00 0.00 0.00 41 1023.2
20260903151015 22 287 0.0 3.2 0.00 0.00 0.00 44 1023.3
20260903150016 22 287 0.0 4.8 0.00 0.00 0.00 45 1023.3
20260903145016 21 181 0.0 3.2 0.00 0.00 0.00 47 1023.3
20260903144016 21 137 0.0 3.2 0.00 0.00 0.00 46 1023.4
20260903143017 20 131 0.0 3.2 0.00 0.00 0.00 47 1023.4
20260903142017 20 142 0.0 1.6 0.00 0.00 0.00 48 1023.5
20260903141015 18 136 0.0 1.6 0.00 0.00 0.00 50 1023.4
20260903140016 18 0.0 0.0 0.00 0.00 0.00 51 1023.3
20260903135016 18 136 0.0 1.6 0.00 0.00 0.00 51 1023.2
20260903134016 17 136 0.0 1.6 0.00 0.00 0.00 52 1023.1
20260903133017 17 136 0.0 1.6 0.00 0.00 0.00 53 1022.9
20260903132017 16 140 1.6 3.2 0.00 0.00 0.00 53 1022.9
20260903131017 15 0.0 0.0 0.00 0.00 0.00 56 1022.9
20260903130015 15 137 0.0 1.6 0.00 0.00 0.00 58 1022.8
20260903125015 15 0.0 0.0 0.00 0.00 0.00 59 1022.6
20260903124016 15 0.0 0.0 0.00 0.00 0.00 58 1022.5
20260903123016 14 137 0.0 1.6 0.00 0.00 0.00 60 1022.4
20260903122016 13 137 0.0 1.6 0.00 0.00 0.00 65 1022.3
20260903121017 14 0.0 0.0 0.00 0.00 0.00 65 1022.1
20260903120014 14 0.0 0.0 0.00 0.00 0.00 65 1022.1
20260903115015 14 0.0 0.0 0.00 0.00 0.00 65 1022.0
20260903114018 14 0.0 0.0 0.00 0.00 0.00 65 1022.1
20260903113016 14 0.0 0.0 0.00 0.00 0.00 67 1022.1
20260903112016 14 0.0 0.0 0.00 0.00 0.00 67 1022.1
20260903111017 15 0.0 0.0 0.00 0.00 0.00 67 1022.0
20260903110017 14 0.0 0.0 0.00 0.00 0.00 68 1022.0
20260903105015 14 0.0 0.0 0.00 0.00 0.00 70 1022.0
20260903104015 15 0.0 0.0 0.00 0.00 0.00 69 1022.0
20260903103016 14 137 0.0 1.6 0.00 0.00 0.00 71 1021.9
20260903102016 14 0.0 0.0 0.00 0.00 0.00 70 1022.0
20260903101036 15 137 0.0 1.6 0.00 0.00 0.00 70 1021.9
20260903100017 15 0.0 0.0 0.00 0.00 0.00 68 1022.1
20260903095017 15 137 0.0 1.6 0.00 0.00 0.00 67 1022.0
20260903094015 15 148 1.6 6.4 0.00 0.00 0.00 70 1022.1
20260903093015 14 140 0.0 1.6 0.00 0.00 0.00 72 1022.1
20260903092015 15 0.0 0.0 0.00 0.00 0.00 71 1022.4
20260903091016 15 0.0 0.0 0.00 0.00 0.00 71 1022.3
20260903090016 15 140 0.0 1.6 0.00 0.00 0.00 70 1022.3
20260903085017 15 0.0 0.0 0.00 0.00 0.00 68 1022.2
20260903084017 16 0.0 0.0 0.00 0.00 0.00 66 1022.1
20260903083015 16 0.0 0.0 0.00 0.00 0.00 65 1022.0
20260903082015 16 143 0.0 1.6 0.00 0.00 0.00 65 1022.1
20260903081020 16 144 0.0 1.6 0.00 0.00 0.00 65 1022.3
20260903080016 16 144 0.0 1.6 0.00 0.00 0.00 65 1022.3
20260903075017 16 145 0.0 1.6 0.00 0.00 0.00 65 1022.3
20260903074017 16 141 1.6 3.2 0.00 0.00 0.00 66 1022.5
20260903073017 16 0.0 0.0 0.00 0.00 0.00 66 1022.6
20260903072015 16 140 0.0 4.8 0.00 0.00 0.00 66 1022.6
20260903071015 16 144 0.0 1.6 0.00 0.00 0.00 66 1022.7
20260903070036 17 0.0 0.0 0.00 0.00 0.00 65 1022.7
20260903065016 17 144 0.0 1.6 0.00 0.00 0.00 65 1022.7
20260903064017 17 144 0.0 4.8 0.00 0.00 0.00 64 1022.5